Time,TemperatureF,DewpointF,PressureIn,WindDirection,WindDirectionDegrees,WindSpeedMPH,WindSpeedGustMPH,Humidity,HourlyPrecipIn,Conditions,Clouds,dailyrainin,SoftwareType,DateUTC
2013-04-04 00:01:00,49.0,45.0,29.93,NW,322,0.0,0.0,86,0.00,,,0.00,,2013-04-04 07:01:00,
2013-04-04 00:12:00,49.0,45.0,29.93,NW,322,0.0,0.0,86,0.00,,,0.00,,2013-04-04 07:12:00,
2013-04-04 00:21:00,49.0,45.0,29.93,NW,322,0.0,1.0,86,0.00,,,0.00,,2013-04-04 07:21:00,
2013-04-04 00:32:00,49.0,45.0,29.92,NW,322,0.0,1.0,86,0.00,,,0.00,,2013-04-04 07:32:00,
2013-04-04 00:42:00,49.0,45.0,29.92,NW,322,0.0,1.0,86,0.00,,,0.00,,2013-04-04 07:42:00,
2013-04-04 00:52:00,49.0,45.0,29.92,NW,322,0.0,4.0,87,0.00,,,0.00,,2013-04-04 07:52:00,
2013-04-04 01:02:00,49.0,45.0,29.92,NW,313,0.0,3.0,86,0.00,,,0.00,,2013-04-04 08:02:00,
2013-04-04 01:12:00,49.0,45.0,29.92,NW,313,0.0,3.0,86,0.00,,,0.00,,2013-04-04 08:12:00,
2013-04-04 01:22:00,49.0,45.0,29.91,NW,313,0.0,3.0,86,0.00,,,0.00,,2013-04-04 08:22:00,
2013-04-04 01:32:00,49.0,45.0,29.91,NW,313,0.0,4.0,87,0.00,,,0.00,,2013-04-04 08:32:00,
2013-04-04 01:42:00,49.0,45.0,29.91,NW,313,0.0,4.0,87,0.00,,,0.00,,2013-04-04 08:42:00,
2013-04-04 01:52:00,49.0,45.0,29.90,NW,313,0.0,0.0,87,0.00,,,0.00,,2013-04-04 08:52:00,
2013-04-04 02:02:00,48.0,44.0,29.90,NW,313,0.0,0.0,87,0.00,,,0.00,,2013-04-04 09:02:00,
2013-04-04 02:12:00,48.0,44.0,29.90,NW,313,0.0,0.0,87,0.00,,,0.00,,2013-04-04 09:12:00,
2013-04-04 02:22:00,48.0,44.0,29.89,NW,314,0.0,0.0,87,0.00,,,0.00,,2013-04-04 09:22:00,
2013-04-04 02:33:00,48.0,44.0,29.88,NW,314,0.0,0.0,87,0.00,,,0.00,,2013-04-04 09:33:00,
2013-04-04 02:43:00,48.0,44.0,29.88,NW,314,0.0,0.0,87,0.00,,,0.00,,2013-04-04 09:43:00,
2013-04-04 02:52:00,48.0,44.0,29.88,NW,314,0.0,0.0,87,0.00,,,0.00,,2013-04-04 09:52:00,
2013-04-04 03:03:00,48.0,45.0,29.87,NW,314,0.0,0.0,89,0.00,,,0.00,,2013-04-04 10:03:00,
2013-04-04 03:12:00,48.0,45.0,29.87,NW,314,0.0,0.0,89,0.00,,,0.00,,2013-04-04 10:12:00,
2013-04-04 03:23:00,47.0,44.0,29.86,NW,314,0.0,0.0,89,0.00,,,0.00,,2013-04-04 10:23:00,
2013-04-04 03:32:00,47.0,44.0,29.86,NW,314,0.0,0.0,89,0.00,,,0.00,,2013-04-04 10:32:00,
2013-04-04 03:42:00,47.0,44.0,29.86,NW,314,0.0,0.0,89,0.00,,,0.00,,2013-04-04 10:42:00,
2013-04-04 03:53:00,47.0,45.0,29.86,NW,314,0.0,0.0,91,0.00,,,0.00,,2013-04-04 10:53:00,
2013-04-04 04:02:00,47.0,45.0,29.85,NW,314,0.0,1.0,91,0.00,,,0.00,,2013-04-04 11:02:00,
2013-04-04 04:12:00,47.0,45.0,29.85,NW,314,0.0,1.0,91,0.00,,,0.00,,2013-04-04 11:12:00,
2013-04-04 04:21:00,47.0,45.0,29.84,NW,314,0.0,1.0,91,0.00,,,0.00,,2013-04-04 11:21:00,
2013-04-04 04:32:00,47.0,45.0,29.84,NW,314,0.0,0.0,91,0.00,,,0.00,,2013-04-04 11:32:00,
2013-04-04 04:42:00,47.0,45.0,29.84,NW,314,0.0,0.0,91,0.00,,,0.00,,2013-04-04 11:42:00,
2013-04-04 04:52:00,47.0,45.0,29.84,NW,314,0.0,0.0,91,0.00,,,0.00,,2013-04-04 11:52:00,
2013-04-04 05:02:00,46.0,44.0,29.83,NW,314,0.0,0.0,91,0.00,,,0.00,,2013-04-04 12:02:00,
2013-04-04 05:12:00,46.0,44.0,29.83,NW,314,0.0,0.0,91,0.00,,,0.00,,2013-04-04 12:12:00,
2013-04-04 05:22:00,46.0,44.0,29.83,NW,314,0.0,0.0,92,0.00,,,0.00,,2013-04-04 12:22:00,
2013-04-04 05:32:00,46.0,44.0,29.82,NW,314,0.0,0.0,92,0.00,,,0.00,,2013-04-04 12:32:00,
2013-04-04 05:42:00,46.0,44.0,29.82,NW,314,0.0,0.0,92,0.00,,,0.00,,2013-04-04 12:42:00,
2013-04-04 05:52:00,46.0,44.0,29.82,NW,314,0.0,0.0,92,0.00,,,0.00,,2013-04-04 12:52:00,
2013-04-04 06:02:00,46.0,44.0,29.81,NW,314,0.0,0.0,92,0.00,,,0.00,,2013-04-04 13:02:00,
2013-04-04 06:12:00,46.0,44.0,29.81,NW,314,0.0,0.0,92,0.00,,,0.00,,2013-04-04 13:12:00,
2013-04-04 06:22:00,46.0,44.0,29.80,NW,314,0.0,0.0,92,0.00,,,0.00,,2013-04-04 13:22:00,
2013-04-04 06:32:00,46.0,44.0,29.80,NW,314,0.0,0.0,93,0.00,,,0.00,,2013-04-04 13:32:00,
2013-04-04 06:42:00,46.0,44.0,29.80,NW,314,0.0,0.0,93,0.00,,,0.00,,2013-04-04 13:42:00,
2013-04-04 06:52:00,46.0,44.0,29.78,NW,315,1.0,4.0,93,0.00,,,0.00,,2013-04-04 13:52:00,
2013-04-04 07:02:00,46.0,44.0,29.78,NW,315,0.0,1.0,93,0.00,,,0.00,,2013-04-04 14:02:00,
2013-04-04 07:12:00,46.0,44.0,29.78,NW,315,0.0,1.0,93,0.00,,,0.00,,2013-04-04 14:12:00,
2013-04-04 07:22:00,46.0,44.0,29.78,NW,315,0.0,0.0,93,0.00,,,0.00,,2013-04-04 14:22:00,
2013-04-04 07:32:00,46.0,44.0,29.77,NW,315,0.0,1.0,93,0.00,,,0.00,,2013-04-04 14:32:00,
2013-04-04 07:42:00,46.0,44.0,29.77,NW,315,0.0,1.0,93,0.00,,,0.00,,2013-04-04 14:42:00,
2013-04-04 07:52:00,47.0,45.0,29.76,NW,315,0.0,0.0,93,0.00,,,0.00,,2013-04-04 14:52:00,
2013-04-04 08:02:00,47.0,45.0,29.76,NW,315,0.0,0.0,93,0.00,,,0.00,,2013-04-04 15:02:00,
2013-04-04 08:12:00,47.0,45.0,29.76,NW,315,0.0,0.0,93,0.00,,,0.00,,2013-04-04 15:12:00,
2013-04-04 08:22:00,48.0,46.0,29.76,WNW,298,0.0,3.0,93,0.00,,,0.00,,2013-04-04 15:22:00,
2013-04-04 08:33:00,48.0,46.0,29.77,WNW,298,0.0,1.0,92,0.00,,,0.00,,2013-04-04 15:33:00,
2013-04-04 08:42:00,48.0,46.0,29.77,WNW,298,0.0,1.0,92,0.00,,,0.00,,2013-04-04 15:42:00,
2013-04-04 08:53:00,49.0,47.0,29.75,WNW,298,0.0,2.0,92,0.00,,,0.00,,2013-04-04 15:53:00,
2013-04-04 09:02:00,49.0,46.0,29.74,WNW,298,1.0,3.0,91,0.00,,,0.00,,2013-04-04 16:02:00,
2013-04-04 09:12:00,49.0,46.0,29.74,WNW,298,1.0,3.0,91,0.00,,,0.00,,2013-04-04 16:12:00,
2013-04-04 09:23:00,49.0,46.0,29.73,WNW,298,0.0,2.0,91,0.00,,,0.00,,2013-04-04 16:23:00,
2013-04-04 09:32:00,49.0,46.0,29.72,NW,305,0.0,5.0,91,0.00,,,0.00,,2013-04-04 16:32:00,
2013-04-04 09:42:00,49.0,46.0,29.72,NW,305,0.0,5.0,91,0.00,,,0.00,,2013-04-04 16:42:00,
2013-04-04 09:52:00,50.0,47.0,29.72,NNW,345,0.0,4.0,89,0.00,,,0.00,,2013-04-04 16:52:00,
2013-04-04 10:02:00,50.0,46.0,29.71,NW,322,2.0,5.0,87,0.00,,,0.00,,2013-04-04 17:02:00,
2013-04-04 10:12:00,50.0,46.0,29.71,NW,322,2.0,5.0,87,0.00,,,0.00,,2013-04-04 17:12:00,
2013-04-04 10:22:00,51.0,47.0,29.71,NW,322,0.0,1.0,87,0.00,,,0.00,,2013-04-04 17:22:00,
2013-04-04 10:32:00,52.0,48.0,29.71,NW,311,0.0,2.0,85,0.00,,,0.00,,2013-04-04 17:32:00,
2013-04-04 10:42:00,52.0,48.0,29.71,NW,311,0.0,2.0,85,0.00,,,0.00,,2013-04-04 17:42:00,
2013-04-04 10:52:00,52.0,48.0,29.71,NW,309,0.0,3.0,86,0.00,,,0.00,,2013-04-04 17:52:00,
2013-04-04 11:02:00,52.0,48.0,29.70,NW,309,0.0,1.0,86,0.00,,,0.00,,2013-04-04 18:02:00,
2013-04-04 11:12:00,52.0,48.0,29.70,NW,309,0.0,1.0,86,0.00,,,0.00,,2013-04-04 18:12:00,
2013-04-04 11:22:00,52.0,48.0,29.70,NW,309,0.0,1.0,87,0.00,,,0.00,,2013-04-04 18:22:00,
2013-04-04 11:32:00,52.0,49.0,29.70,NW,309,1.0,4.0,88,0.01,,,0.01,,2013-04-04 18:32:00,
2013-04-04 11:42:00,52.0,49.0,29.70,NW,309,1.0,4.0,88,0.01,,,0.01,,2013-04-04 18:42:00,
2013-04-04 11:52:00,52.0,49.0,29.68,NW,309,0.0,3.0,89,0.01,,,0.01,,2013-04-04 18:52:00,
2013-04-04 12:02:00,52.0,49.0,29.69,NW,309,0.0,2.0,89,0.01,,,0.01,,2013-04-04 19:02:00,
2013-04-04 12:12:00,52.0,49.0,29.69,NW,309,0.0,2.0,89,0.01,,,0.01,,2013-04-04 19:12:00,
2013-04-04 12:21:00,52.0,49.0,29.68,NW,308,0.0,4.0,90,0.01,,,0.01,,2013-04-04 19:21:00,
2013-04-04 12:32:00,53.0,50.0,29.68,NW,308,1.0,2.0,91,0.01,,,0.02,,2013-04-04 19:32:00,
2013-04-04 12:42:00,53.0,50.0,29.68,NW,308,1.0,2.0,91,0.01,,,0.02,,2013-04-04 19:42:00,
2013-04-04 12:52:00,53.0,50.0,29.68,NW,308,0.0,3.0,91,0.01,,,0.02,,2013-04-04 19:52:00,
2013-04-04 13:02:00,53.0,50.0,29.67,NW,308,0.0,0.0,91,0.02,,,0.03,,2013-04-04 20:02:00,
2013-04-04 13:12:00,53.0,50.0,29.67,NW,308,0.0,0.0,91,0.02,,,0.03,,2013-04-04 20:12:00,
2013-04-04 13:22:00,55.0,52.0,29.67,NW,308,0.0,2.0,91,0.01,,,0.03,,2013-04-04 20:22:00,
2013-04-04 13:32:00,55.0,52.0,29.66,NW,308,0.0,1.0,90,0.01,,,0.03,,2013-04-04 20:32:00,
2013-04-04 13:42:00,55.0,52.0,29.66,NW,308,0.0,1.0,90,0.01,,,0.03,,2013-04-04 20:42:00,
2013-04-04 13:52:00,55.0,52.0,29.66,ESE,111,0.0,4.0,90,0.01,,,0.03,,2013-04-04 20:52:00,
2013-04-04 14:02:00,55.0,52.0,29.65,ESE,111,0.0,3.0,89,0.00,,,0.03,,2013-04-04 21:02:00,
2013-04-04 14:12:00,55.0,52.0,29.65,ESE,111,0.0,3.0,89,0.00,,,0.03,,2013-04-04 21:12:00,
2013-04-04 14:22:00,55.0,52.0,29.65,South,177,1.0,3.0,89,0.00,,,0.03,,2013-04-04 21:22:00,
2013-04-04 14:32:00,55.0,52.0,29.64,SSE,155,0.0,3.0,89,0.01,,,0.04,,2013-04-04 21:32:00,
2013-04-04 14:42:00,55.0,52.0,29.64,SSE,155,0.0,3.0,89,0.01,,,0.04,,2013-04-04 21:42:00,
2013-04-04 14:52:00,55.0,52.0,29.64,SSE,167,0.0,4.0,89,0.02,,,0.05,,2013-04-04 21:52:00,
2013-04-04 15:03:00,55.0,53.0,29.65,SSW,192,0.0,4.0,92,0.02,,,0.05,,2013-04-04 22:03:00,
2013-04-04 15:12:00,55.0,53.0,29.65,SSW,192,0.0,4.0,92,0.02,,,0.05,,2013-04-04 22:12:00,
2013-04-04 15:22:00,55.0,52.0,29.64,SE,146,0.0,3.0,91,0.03,,,0.06,,2013-04-04 22:22:00,
2013-04-04 15:33:00,55.0,52.0,29.64,ESE,107,0.0,3.0,90,0.03,,,0.07,,2013-04-04 22:33:00,
2013-04-04 15:42:00,55.0,52.0,29.64,ESE,107,0.0,3.0,90,0.03,,,0.07,,2013-04-04 22:42:00,
2013-04-04 15:52:00,55.0,52.0,29.63,SSE,160,1.0,4.0,91,0.02,,,0.07,,2013-04-04 22:52:00,
2013-04-04 16:02:00,55.0,52.0,29.63,SSE,153,0.0,3.0,91,0.03,,,0.08,,2013-04-04 23:02:00,
2013-04-04 16:12:00,55.0,52.0,29.63,SSE,153,0.0,3.0,91,0.03,,,0.08,,2013-04-04 23:12:00,
2013-04-04 16:22:00,55.0,53.0,29.63,SSE,150,1.0,4.0,92,0.03,,,0.09,,2013-04-04 23:22:00,
2013-04-04 16:32:00,54.0,52.0,29.63,SE,134,0.0,5.0,92,0.02,,,0.09,,2013-04-04 23:32:00,
2013-04-04 16:42:00,54.0,52.0,29.63,SE,134,0.0,5.0,92,0.02,,,0.09,,2013-04-04 23:42:00,
2013-04-04 16:52:00,54.0,52.0,29.63,SSE,163,1.0,3.0,92,0.04,,,0.11,,2013-04-04 23:52:00,
2013-04-04 17:02:00,54.0,52.0,29.62,ESE,117,3.0,6.0,92,0.03,,,0.11,,2013-04-05 00:02:00,
2013-04-04 17:12:00,54.0,52.0,29.62,ESE,117,3.0,6.0,92,0.03,,,0.11,,2013-04-05 00:12:00,
2013-04-04 17:22:00,54.0,52.0,29.62,ESE,119,0.0,3.0,92,0.03,,,0.12,,2013-04-05 00:22:00,
2013-04-04 17:32:00,54.0,52.0,29.62,ESE,119,0.0,3.0,92,0.03,,,0.12,,2013-04-05 00:32:00,
2013-04-04 17:42:00,54.0,52.0,29.62,ESE,119,0.0,3.0,92,0.03,,,0.12,,2013-04-05 00:42:00,
2013-04-04 17:52:00,54.0,52.0,29.61,ESE,123,0.0,3.0,92,0.05,,,0.16,,2013-04-05 00:52:00,
2013-04-04 18:02:00,54.0,51.0,29.62,South,175,0.0,5.0,91,0.07,,,0.18,,2013-04-05 01:02:00,
2013-04-04 18:12:00,54.0,51.0,29.62,South,175,0.0,5.0,91,0.07,,,0.18,,2013-04-05 01:12:00,
2013-04-04 18:22:00,54.0,52.0,29.62,East,100,1.0,4.0,92,0.08,,,0.20,,2013-04-05 01:22:00,
2013-04-04 18:32:00,53.0,51.0,29.62,East,84,3.0,8.0,92,0.09,,,0.22,,2013-04-05 01:32:00,
2013-04-04 18:42:00,53.0,51.0,29.62,East,84,3.0,8.0,92,0.09,,,0.22,,2013-04-05 01:42:00,
2013-04-04 18:52:00,53.0,51.0,29.63,South,171,2.0,10.0,93,0.07,,,0.23,,2013-04-05 01:52:00,
2013-04-04 19:02:00,54.0,52.0,29.63,East,97,3.0,10.0,93,0.06,,,0.24,,2013-04-05 02:02:00,
2013-04-04 19:12:00,54.0,52.0,29.63,East,97,3.0,10.0,93,0.06,,,0.24,,2013-04-05 02:12:00,
2013-04-04 19:22:00,54.0,52.0,29.64,SE,144,4.0,14.0,93,0.05,,,0.25,,2013-04-05 02:22:00,
2013-04-04 19:32:00,54.0,52.0,29.64,SSE,161,4.0,8.0,93,0.04,,,0.26,,2013-04-05 02:32:00,
2013-04-04 19:42:00,54.0,52.0,29.64,SSE,161,4.0,8.0,93,0.04,,,0.26,,2013-04-05 02:42:00,
2013-04-04 19:52:00,54.0,51.0,29.65,SSE,157,5.0,13.0,91,0.03,,,0.26,,2013-04-05 02:52:00,
2013-04-04 20:02:00,55.0,52.0,29.65,SE,125,4.0,10.0,90,0.01,,,0.26,,2013-04-05 03:02:00,
2013-04-04 20:12:00,55.0,52.0,29.65,SE,125,4.0,10.0,90,0.01,,,0.26,,2013-04-05 03:12:00,
2013-04-04 20:22:00,55.0,52.0,29.66,ESE,109,3.0,9.0,88,0.01,,,0.26,,2013-04-05 03:22:00,
2013-04-04 20:32:00,55.0,51.0,29.66,ESE,122,5.0,12.0,87,0.00,,,0.26,,2013-04-05 03:32:00,
2013-04-04 20:43:00,55.0,51.0,29.66,ESE,122,5.0,12.0,87,0.00,,,0.26,,2013-04-05 03:43:00,
2013-04-04 20:53:00,55.0,51.0,29.67,ESE,123,4.0,8.0,86,0.00,,,0.26,,2013-04-05 03:53:00,
2013-04-04 21:02:00,55.0,51.0,29.68,SE,144,3.0,8.0,87,0.00,,,0.26,,2013-04-05 04:02:00,
2013-04-04 21:12:00,55.0,51.0,29.68,SE,144,3.0,8.0,87,0.00,,,0.26,,2013-04-05 04:12:00,
2013-04-04 21:22:00,55.0,51.0,29.68,SE,136,2.0,9.0,86,0.00,,,0.26,,2013-04-05 04:22:00,
2013-04-04 21:32:00,55.0,51.0,29.68,South,172,5.0,12.0,86,0.00,,,0.26,,2013-04-05 04:32:00,
2013-04-04 21:42:00,55.0,51.0,29.68,South,172,5.0,12.0,86,0.00,,,0.26,,2013-04-05 04:42:00,
2013-04-04 21:52:00,55.0,51.0,29.68,East,97,3.0,9.0,86,0.00,,,0.26,,2013-04-05 04:52:00,
2013-04-04 22:02:00,55.0,51.0,29.69,SSE,163,3.0,10.0,85,0.00,,,0.26,,2013-04-05 05:02:00,
2013-04-04 22:12:00,55.0,51.0,29.69,SSE,163,3.0,10.0,85,0.00,,,0.26,,2013-04-05 05:12:00,
2013-04-04 22:22:00,55.0,50.0,29.69,South,191,4.0,13.0,84,0.00,,,0.26,,2013-04-05 05:22:00,
2013-04-04 22:32:00,55.0,50.0,29.69,SSE,150,2.0,8.0,83,0.00,,,0.26,,2013-04-05 05:32:00,
2013-04-04 22:42:00,55.0,50.0,29.69,SSE,150,2.0,8.0,83,0.00,,,0.26,,2013-04-05 05:42:00,
2013-04-04 22:52:00,54.0,49.0,29.69,SSE,167,1.0,7.0,83,0.00,,,0.26,,2013-04-05 05:52:00,
2013-04-04 23:02:00,54.0,49.0,29.69,ESE,103,2.0,7.0,83,0.00,,,0.26,,2013-04-05 06:02:00,
2013-04-04 23:12:00,54.0,49.0,29.69,ESE,103,2.0,7.0,83,0.00,,,0.26,,2013-04-05 06:12:00,
2013-04-04 23:22:00,54.0,49.0,29.70,ESE,106,3.0,9.0,84,0.00,,,0.26,,2013-04-05 06:22:00,
2013-04-04 23:32:00,54.0,50.0,29.70,ESE,109,3.0,8.0,86,0.00,,,0.26,,2013-04-05 06:32:00,
2013-04-04 23:42:00,54.0,50.0,29.70,ESE,109,3.0,8.0,86,0.00,,,0.26,,2013-04-05 06:42:00,
2013-04-04 23:52:00,53.0,49.0,29.70,SE,146,1.0,4.0,87,0.00,,,0.26,,2013-04-05 06:52:00,